Date String (YYYY-MM-DD hh:mm:ss) UTC,Instrument flags,absolute air pressure of the measurement (hPa),sample flow rate (lpm),inlet stack bypass flow (lpm),air temperature of the measurement (°C),ambient temperature measured by the external sensor (°C),aerosol sample conditioner tube jacket temperature (°C),OPC LED temperature (°C),internal box temperature (°C),relative humidity of the measurement (%),span deviation,mass concentration of particles derived from Lorenz-Mie calculation of OPC scattering (μg/m³),mass concentration of particles derived from Lorenz-Mie calculation of OPC scattering (μg/m³),mass concentration of particles derived from Lorenz-Mie calculation of OPC scattering (μg/m³)
DateTimeUTC,F1_M11,P_M11,Q1_M11,Q2_M11,T1_M11,T2_M11,T3_M11,T4_M11,T5_M11,U1_M11,ZSPAN_M11,X2_M11,X0_M11,X1_M11
2023-11-19 13:00:00,SystemResetWarning,0822.4,5.00,000.00,023.5,022.5,000.0,032.0,024.9,13.8,0000.0,0000.79,0001.11,0000.68
2023-11-19 13:01:00,SystemResetWarning,0822.3,5.00,000.00,023.5,022.5,000.0,031.9,024.9,13.8,0000.0,0000.79,0001.12,0000.67
2023-11-19 13:02:00,SystemResetWarning,0822.3,5.01,000.00,023.5,022.5,000.0,031.9,024.9,13.8,0000.0,0000.80,0001.13,0000.68
2023-11-19 13:03:00,SystemResetWarning,0822.3,5.00,000.00,023.5,022.5,000.0,031.9,024.9,13.9,0000.0,0000.80,0001.11,0000.70
2023-11-19 13:04:00,SystemResetWarning,0822.2,5.00,000.00,023.5,022.5,000.0,031.9,024.9,13.9,0000.0,0000.81,0002.05,0000.70
2023-11-19 13:05:00,SystemResetWarning,0822.2,4.99,000.00,023.5,022.5,000.0,031.9,024.9,13.9,0000.0,0000.81,0002.07,0000.71
2023-11-19 13:06:00,SystemResetWarning,0822.3,4.99,000.00,023.5,022.5,000.0,031.9,024.9,14.0,0000.0,0000.79,0002.03,0000.70
2023-11-19 13:07:00,SystemResetWarning,0822.3,4.99,000.00,023.5,022.5,000.0,031.9,024.9,13.9,0000.0,0000.78,0002.01,0000.70
2023-11-19 13:08:00,SystemResetWarning,0822.2,5.01,000.00,023.5,022.5,000.0,031.9,024.9,13.9,0000.0,0000.78,0002.01,0000.70
2023-11-19 13:09:00,SystemResetWarning,0822.2,5.01,000.00,023.5,022.5,000.0,031.9,024.9,13.9,0000.0,0000.78,0002.02,0000.70
2023-11-19 13:10:00,SystemResetWarning,0822.2,5.00,000.00,023.5,022.5,000.0,031.9,024.9,13.8,0000.0,0000.80,0002.07,0000.70
2023-11-19 13:11:00,SystemResetWarning,0822.2,4.99,000.00,023.5,022.5,000.0,031.9,024.9,13.8,0000.0,0000.81,0002.12,0000.70
2023-11-19 13:12:00,SystemResetWarning,0822.2,5.00,000.00,023.5,022.5,000.0,031.9,024.9,13.8,0000.0,0000.83,0002.16,0000.70
2023-11-19 13:13:00,SystemResetWarning,0822.2,5.00,000.00,023.5,022.5,000.0,031.9,024.9,13.7,0000.0,0000.83,0002.18,0000.70
2023-11-19 13:14:00,SystemResetWarning,0822.2,5.00,000.00,023.5,022.5,000.0,031.9,024.9,13.7,0000.0,0000.84,0002.19,0000.71
2023-11-19 13:15:00,SystemResetWarning,0822.2,5.00,000.00,023.5,022.5,000.0,031.9,024.9,13.7,0000.0,0000.83,0001.75,0000.70
2023-11-19 13:16:00,SystemResetWarning,0822.2,5.00,000.00,023.5,022.5,000.0,031.9,024.9,13.7,0000.0,0000.82,0002.16,0000.70
2023-11-19 13:17:00,SystemResetWarning,0822.2,5.00,000.00,023.5,022.5,000.0,031.9,024.9,13.6,0000.0,0000.84,0002.72,0000.71
2023-11-19 13:18:00,SystemResetWarning,0822.2,5.00,000.00,023.5,022.5,000.0,031.9,024.9,13.6,0000.0,0000.86,0002.76,0000.71
2023-11-19 13:19:00,SystemResetWarning,0822.2,5.00,000.00,023.5,022.5,000.0,031.9,024.9,13.6,0000.0,0000.88,0002.79,0000.72
2023-11-19 13:20:00,SystemResetWarning,0822.3,5.00,000.00,023.5,022.5,000.0,031.9,024.9,13.7,0000.0,0000.90,0002.82,0000.73
2023-11-19 13:21:00,SystemResetWarning,0822.2,5.00,000.00,023.5,022.5,000.0,031.9,024.9,13.7,0000.0,0000.91,0002.85,0000.73
2023-11-19 13:22:00,SystemResetWarning,0822.2,5.00,000.00,023.5,022.5,000.0,031.9,024.9,13.9,0000.0,0000.89,0002.79,0000.72
2023-11-19 13:23:00,SystemResetWarning,0822.2,5.00,000.00,023.5,022.5,000.0,031.9,024.9,13.9,0000.0,0000.89,0002.78,0000.72
2023-11-19 13:24:00,SystemResetWarning,0822.2,5.01,000.00,023.5,022.5,000.0,031.9,024.9,13.9,0000.0,0000.87,0002.74,0000.73
2023-11-19 13:25:00,SystemResetWarning,0822.2,5.00,000.00,023.5,022.5,000.0,031.9,024.9,13.9,0000.0,0000.87,0002.73,0000.73
2023-11-19 13:26:00,SystemResetWarning,0822.2,4.99,000.00,023.5,022.5,000.0,031.9,024.9,13.9,0000.0,0000.90,0002.77,0000.73
2023-11-19 13:27:00,SystemResetWarning,0822.2,5.00,000.00,023.5,022.5,000.0,031.9,024.9,13.8,0000.0,0000.90,0002.01,0000.73
2023-11-19 13:28:00,SystemResetWarning,0822.2,5.01,000.00,023.5,022.5,000.0,031.9,024.8,13.9,0000.0,0000.90,0001.36,0000.73
2023-11-19 13:29:00,SystemResetWarning,0822.1,4.99,000.00,023.5,022.5,000.0,031.9,024.9,13.9,0000.0,0000.91,0001.31,0000.73
2023-11-19 13:30:00,SystemResetWarning,0822.2,5.00,000.00,023.5,022.5,000.0,031.9,024.9,13.9,0000.0,0000.91,0001.32,0000.73
2023-11-19 13:31:00,SystemResetWarning,0822.1,5.00,000.00,023.5,022.5,000.0,031.9,024.9,13.9,0000.0,0000.90,0001.32,0000.72
2023-11-19 13:32:00,SystemResetWarning,0822.1,5.01,000.00,023.5,022.5,000.0,031.9,024.9,13.9,0000.0,0000.89,0001.28,0000.72
2023-11-19 13:33:00,SystemResetWarning,0822.1,5.00,000.00,023.5,022.5,000.0,031.9,024.9,13.9,0000.0,0000.89,0001.29,0000.72
2023-11-19 13:34:00,SystemResetWarning,0822.1,5.00,000.00,023.5,022.5,000.0,031.9,024.9,14.0,0000.0,0000.89,0001.27,0000.72
2023-11-19 13:35:00,SystemResetWarning,0822.2,5.01,000.00,023.5,022.5,000.0,031.9,024.9,14.1,0000.0,0000.91,0001.32,0000.72
2023-11-19 13:36:00,SystemResetWarning,0822.2,5.01,000.00,023.5,022.5,000.0,031.9,024.9,14.1,0000.0,0000.89,0001.30,0000.71
2023-11-19 13:37:00,SystemResetWarning,0822.2,5.00,000.00,023.5,022.5,000.0,031.9,024.9,14.0,0000.0,0000.89,0001.31,0000.71
2023-11-19 13:38:00,SystemResetWarning,0822.2,5.00,000.00,023.6,022.6,000.0,031.9,024.9,13.9,0000.0,0000.93,0001.62,0000.70
2023-11-19 13:39:00,SystemResetWarning,0822.2,5.00,000.00,023.6,022.6,000.0,031.9,024.9,14.0,0000.0,0000.95,0001.76,0000.70
2023-11-19 13:40:00,SystemResetWarning,0822.1,5.00,000.00,023.6,022.6,000.0,031.9,024.9,14.5,0000.0,0000.93,0001.73,0000.70
2023-11-19 13:41:00,SystemResetWarning,0822.1,5.00,000.00,023.6,022.6,000.0,031.9,024.9,14.6,0000.0,0000.96,0001.80,0000.69
2023-11-19 13:42:00,SystemResetWarning,0822.1,4.99,000.00,023.6,022.6,000.0,031.9,024.9,14.5,0000.0,0001.00,0001.89,0000.69
2023-11-19 13:43:00,SystemResetWarning,0822.1,5.00,000.00,023.6,022.6,000.0,031.9,024.9,14.6,0000.0,0001.00,0002.06,0000.69
2023-11-19 13:44:00,SystemResetWarning,0822.1,5.00,000.00,023.6,022.6,000.0,031.9,024.9,14.5,0000.0,0001.01,0002.20,0000.69
2023-11-19 13:45:00,SystemResetWarning,0822.1,5.00,000.00,023.6,022.6,000.0,031.9,025.0,14.2,0000.0,0001.03,0002.32,0000.69
2023-11-19 13:46:00,SystemResetWarning,0822.0,5.00,000.00,023.6,022.7,000.0,031.9,024.9,14.6,0000.0,0001.04,0002.32,0000.70
2023-11-19 13:47:00,SystemResetWarning,0822.0,5.00,000.00,023.6,022.7,000.0,031.9,025.0,14.6,0000.0,0001.04,0002.32,0000.70
2023-11-19 13:48:00,SystemResetWarning,0822.0,5.00,000.00,023.6,022.7,000.0,031.9,025.0,14.4,0000.0,0001.03,0002.45,0000.70
2023-11-19 13:49:00,SystemResetWarning,0822.0,5.00,000.00,023.6,022.7,000.0,031.9,025.0,14.5,0000.0,0000.99,0002.22,0000.70
2023-11-19 13:50:00,SystemResetWarning,0822.0,5.00,000.00,023.6,022.7,000.0,031.9,025.0,14.6,0000.0,0001.00,0002.14,0000.71
2023-11-19 13:51:00,SystemResetWarning,0822.0,5.00,000.00,023.6,022.7,000.0,031.9,025.0,15.1,0000.0,0000.99,0002.11,0000.71
2023-11-19 13:52:00,SystemResetWarning,0821.9,5.00,000.00,023.6,022.7,000.0,031.9,025.0,15.2,0000.0,0000.99,0002.24,0000.72
2023-11-19 13:53:00,SystemResetWarning,0822.0,5.00,000.00,023.6,022.7,000.0,031.9,025.0,15.3,0000.0,0000.99,0002.33,0000.73
2023-11-19 13:54:00,SystemResetWarning,0822.0,5.00,000.00,023.7,022.7,000.0,031.9,025.0,14.8,0000.0,0000.99,0002.17,0000.74
2023-11-19 13:55:00,SystemResetWarning,0822.0,5.00,000.00,023.7,022.7,000.0,031.9,025.0,15.1,0000.0,0000.99,0002.26,0000.74
2023-11-19 13:56:00,SystemResetWarning,0821.9,5.00,000.00,023.7,022.7,000.0,032.0,025.0,15.1,0000.0,0000.97,0003.42,0000.73
2023-11-19 13:57:00,SystemResetWarning,0822.0,5.00,000.00,023.7,022.6,000.0,032.0,025.0,15.2,0000.0,0000.95,0003.39,0000.73
2023-11-19 13:58:00,SystemResetWarning,0821.9,5.00,000.00,023.6,022.6,000.0,032.0,025.0,15.3,0000.0,0000.97,0003.89,0000.75
2023-11-19 13:59:00,SystemResetWarning,0821.9,5.00,000.00,023.6,022.6,000.0,032.0,025.0,14.7,0000.0,0001.00,0004.10,0000.75
